owner,sensor,date,latitude,longitude,air_pressure(mBar),qcFlag 
COMPS,ioos:station:USF.COMPS:SHP:1,2019-07-01T00:54:00,30.0600,-84.2910,1015.69,11111222 
COMPS,ioos:station:USF.COMPS:SHP:1,2019-07-01T01:54:00,30.0600,-84.2910,1015.98,11111222 
COMPS,ioos:station:USF.COMPS:SHP:1,2019-07-01T02:54:00,30.0600,-84.2910,1016.2,11111222 
COMPS,ioos:station:USF.COMPS:SHP:1,2019-07-01T03:54:00,30.0600,-84.2910,1016.33,11111222 
COMPS,ioos:station:USF.COMPS:SHP:1,2019-07-01T04:54:00,30.0600,-84.2910,1016.38,11111222 
COMPS,ioos:station:USF.COMPS:SHP:1,2019-07-01T05:54:00,30.0600,-84.2910,1016.74,11111222 
COMPS,ioos:station:USF.COMPS:SHP:1,2019-07-01T06:54:00,30.0600,-84.2910,1016.42,11111222 
COMPS,ioos:station:USF.COMPS:SHP:1,2019-07-01T07:54:00,30.0600,-84.2910,1016.13,11111222 
COMPS,ioos:station:USF.COMPS:SHP:1,2019-07-01T08:54:00,30.0600,-84.2910,1016.2,11111222 
COMPS,ioos:station:USF.COMPS:SHP:1,2019-07-01T09:54:00,30.0600,-84.2910,1016.26,11111222 
COMPS,ioos:station:USF.COMPS:SHP:1,2019-07-01T10:54:00,30.0600,-84.2910,1016.09,11111222 
COMPS,ioos:station:USF.COMPS:SHP:1,2019-07-01T11:54:00,30.0600,-84.2910,1016.36,11111222 
COMPS,ioos:station:USF.COMPS:SHP:1,2019-07-01T12:54:00,30.0600,-84.2910,1016.65,11111222 
COMPS,ioos:station:USF.COMPS:SHP:1,2019-07-01T14:54:00,30.0600,-84.2910,1016.4,11111222 
COMPS,ioos:station:USF.COMPS:SHP:1,2019-07-01T15:54:00,30.0600,-84.2910,1016.17,11111222 
COMPS,ioos:station:USF.COMPS:SHP:1,2019-07-01T16:54:00,30.0600,-84.2910,1016.14,11111222 
COMPS,ioos:station:USF.COMPS:SHP:1,2019-07-01T17:54:00,30.0600,-84.2910,1015.97,11111222 
COMPS,ioos:station:USF.COMPS:SHP:1,2019-07-01T18:54:00,30.0600,-84.2910,1015.4,11111222 
COMPS,ioos:station:USF.COMPS:SHP:1,2019-07-01T19:54:00,30.0600,-84.2910,1014.98,11111222 
COMPS,ioos:station:USF.COMPS:SHP:1,2019-07-01T20:54:00,30.0600,-84.2910,1014.46,11111222 
COMPS,ioos:station:USF.COMPS:SHP:1,2019-07-01T21:54:00,30.0600,-84.2910,1014.17,11111222 
COMPS,ioos:station:USF.COMPS:SHP:1,2019-07-01T22:54:00,30.0600,-84.2910,1013.85,11111222 
COMPS,ioos:station:USF.COMPS:SHP:1,2019-07-01T23:54:00,30.0600,-84.2910,1014.2,11111222 
COMPS,ioos:station:USF.COMPS:SHP:1,2019-07-02T00:54:00,30.0600,-84.2910,1014.48,11111222 
COMPS,ioos:station:USF.COMPS:SHP:1,2019-07-02T01:54:00,30.0600,-84.2910,1015.05,11111222 
COMPS,ioos:station:USF.COMPS:SHP:1,2019-07-02T02:54:00,30.0600,-84.2910,1015.41,11111222 
COMPS,ioos:station:USF.COMPS:SHP:1,2019-07-02T03:54:00,30.0600,-84.2910,1015.73,11111222 
COMPS,ioos:station:USF.COMPS:SHP:1,2019-07-02T04:54:00,30.0600,-84.2910,1015.74,11111222 
COMPS,ioos:station:USF.COMPS:SHP:1,2019-07-02T05:54:00,30.0600,-84.2910,1015.13,11111222 
COMPS,ioos:station:USF.COMPS:SHP:1,2019-07-02T06:54:00,30.0600,-84.2910,1014.61,11111222 
COMPS,ioos:station:USF.COMPS:SHP:1,2019-07-02T07:54:00,30.0600,-84.2910,1014.25,11111222 
COMPS,ioos:station:USF.COMPS:SHP:1,2019-07-02T08:54:00,30.0600,-84.2910,1014.37,11111222 
COMPS,ioos:station:USF.COMPS:SHP:1,2019-07-02T09:54:00,30.0600,-84.2910,1014.68,11111222 
COMPS,ioos:station:USF.COMPS:SHP:1,2019-07-02T10:54:00,30.0600,-84.2910,1015.13,11111222 
COMPS,ioos:station:USF.COMPS:SHP:1,2019-07-02T11:54:00,30.0600,-84.2910,1015.46,11111222 
COMPS,ioos:station:USF.COMPS:SHP:1,2019-07-02T12:54:00,30.0600,-84.2910,1015.85,11111222 
COMPS,ioos:station:USF.COMPS:SHP:1,2019-07-02T13:54:00,30.0600,-84.2910,1016.12,11111222 
COMPS,ioos:station:USF.COMPS:SHP:1,2019-07-02T14:54:00,30.0600,-84.2910,1015.77,11111222 
COMPS,ioos:station:USF.COMPS:SHP:1,2019-07-02T15:54:00,30.0600,-84.2910,1015.46,11111222 
COMPS,ioos:station:USF.COMPS:SHP:1,2019-07-02T16:54:00,30.0600,-84.2910,1014.89,11111222 
COMPS,ioos:station:USF.COMPS:SHP:1,2019-07-02T17:54:00,30.0600,-84.2910,1014.29,11111222 
COMPS,ioos:station:USF.COMPS:SHP:1,2019-07-02T18:54:00,30.0600,-84.2910,1013.48,11111222 
COMPS,ioos:station:USF.COMPS:SHP:1,2019-07-02T19:54:00,30.0600,-84.2910,1012.73,11111222 
COMPS,ioos:station:USF.COMPS:SHP:1,2019-07-02T20:54:00,30.0600,-84.2910,1012.64,11111222 
COMPS,ioos:station:USF.COMPS:SHP:1,2019-07-02T21:54:00,30.0600,-84.2910,1012.14,11111222 
COMPS,ioos:station:USF.COMPS:SHP:1,2019-07-02T22:54:00,30.0600,-84.2910,1012.7,11111222 
COMPS,ioos:station:USF.COMPS:SHP:1,2019-07-02T23:54:00,30.0600,-84.2910,1013.02,11111222 
COMPS,ioos:station:USF.COMPS:SHP:1,2019-07-03T00:54:00,30.0600,-84.2910,1012.62,11111222 
COMPS,ioos:station:USF.COMPS:SHP:1,2019-07-03T01:54:00,30.0600,-84.2910,1013.1,11111222 
COMPS,ioos:station:USF.COMPS:SHP:1,2019-07-03T02:54:00,30.0600,-84.2910,1013.98,11111222 
COMPS,ioos:station:USF.COMPS:SHP:1,2019-07-03T03:54:00,30.0600,-84.2910,1013.96,11111222 
COMPS,ioos:station:USF.COMPS:SHP:1,2019-07-03T04:54:00,30.0600,-84.2910,1013.8,11111222 
COMPS,ioos:station:USF.COMPS:SHP:1,2019-07-03T05:54:00,30.0600,-84.2910,1013.45,11111222 
COMPS,ioos:station:USF.COMPS:SHP:1,2019-07-03T06:54:00,30.0600,-84.2910,1012.98,11111222 
COMPS,ioos:station:USF.COMPS:SHP:1,2019-07-03T07:54:00,30.0600,-84.2910,1012.73,11111222 
COMPS,ioos:station:USF.COMPS:SHP:1,2019-07-03T08:54:00,30.0600,-84.2910,1012.72,11111222 
COMPS,ioos:station:USF.COMPS:SHP:1,2019-07-03T09:54:00,30.0600,-84.2910,1013.28,11111222 
COMPS,ioos:station:USF.COMPS:SHP:1,2019-07-03T10:54:00,30.0600,-84.2910,1013.65,11111222 
COMPS,ioos:station:USF.COMPS:SHP:1,2019-07-03T11:54:00,30.0600,-84.2910,1013.92,11111222 
COMPS,ioos:station:USF.COMPS:SHP:1,2019-07-03T12:54:00,30.0600,-84.2910,1014.05,11111222 
COMPS,ioos:station:USF.COMPS:SHP:1,2019-07-03T13:54:00,30.0600,-84.2910,1014.38,11111222 
COMPS,ioos:station:USF.COMPS:SHP:1,2019-07-03T14:54:00,30.0600,-84.2910,1014.24,11111222 
COMPS,ioos:station:USF.COMPS:SHP:1,2019-07-03T15:54:00,30.0600,-84.2910,1014.18,11111222 
COMPS,ioos:station:USF.COMPS:SHP:1,2019-07-03T16:54:00,30.0600,-84.2910,1014.25,11111222 
COMPS,ioos:station:USF.COMPS:SHP:1,2019-07-03T17:54:00,30.0600,-84.2910,1013.65,11111222 
COMPS,ioos:station:USF.COMPS:SHP:1,2019-07-03T18:54:00,30.0600,-84.2910,1012.93,11111222 
COMPS,ioos:station:USF.COMPS:SHP:1,2019-07-03T19:54:00,30.0600,-84.2910,1011.65,11111222 
COMPS,ioos:station:USF.COMPS:SHP:1,2019-07-03T20:54:00,30.0600,-84.2910,1011.74,11111222 
COMPS,ioos:station:USF.COMPS:SHP:1,2019-07-03T21:54:00,30.0600,-84.2910,1011.26,11111222 
COMPS,ioos:station:USF.COMPS:SHP:1,2019-07-03T22:54:00,30.0600,-84.2910,1012.22,11111222 
COMPS,ioos:station:USF.COMPS:SHP:1,2019-07-03T23:54:00,30.0600,-84.2910,1012.76,11111222 
COMPS,ioos:station:USF.COMPS:SHP:1,2019-07-04T00:54:00,30.0600,-84.2910,1013.05,11111222 
COMPS,ioos:station:USF.COMPS:SHP:1,2019-07-04T01:54:00,30.0600,-84.2910,1013.06,11111222 
COMPS,ioos:station:USF.COMPS:SHP:1,2019-07-04T02:54:00,30.0600,-84.2910,1013.9,11111222 
COMPS,ioos:station:USF.COMPS:SHP:1,2019-07-04T03:54:00,30.0600,-84.2910,1014.12,11111222 
COMPS,ioos:station:USF.COMPS:SHP:1,2019-07-04T04:54:00,30.0600,-84.2910,1013.86,11111222 
COMPS,ioos:station:USF.COMPS:SHP:1,2019-07-04T05:54:00,30.0600,-84.2910,1013.56,11111222 
COMPS,ioos:station:USF.COMPS:SHP:1,2019-07-04T06:54:00,30.0600,-84.2910,1013.57,11111222 
COMPS,ioos:station:USF.COMPS:SHP:1,2019-07-04T07:54:00,30.0600,-84.2910,1013.16,11111222 
COMPS,ioos:station:USF.COMPS:SHP:1,2019-07-04T08:54:00,30.0600,-84.2910,1013.14,11111222 
COMPS,ioos:station:USF.COMPS:SHP:1,2019-07-04T09:54:00,30.0600,-84.2910,1013.48,11111222 
COMPS,ioos:station:USF.COMPS:SHP:1,2019-07-04T10:54:00,30.0600,-84.2910,1014.09,11111222 
COMPS,ioos:station:USF.COMPS:SHP:1,2019-07-04T11:54:00,30.0600,-84.2910,1014.66,11111222 
COMPS,ioos:station:USF.COMPS:SHP:1,2019-07-04T12:54:00,30.0600,-84.2910,1014.81,11111222 
COMPS,ioos:station:USF.COMPS:SHP:1,2019-07-04T13:54:00,30.0600,-84.2910,1015.02,11111222 
COMPS,ioos:station:USF.COMPS:SHP:1,2019-07-04T14:54:00,30.0600,-84.2910,1015.13,11111222 
COMPS,ioos:station:USF.COMPS:SHP:1,2019-07-04T15:54:00,30.0600,-84.2910,1015.36,11111222 
COMPS,ioos:station:USF.COMPS:SHP:1,2019-07-04T16:54:00,30.0600,-84.2910,1015.16,11111222 
COMPS,ioos:station:USF.COMPS:SHP:1,2019-07-04T17:54:00,30.0600,-84.2910,1014.58,11111222 
COMPS,ioos:station:USF.COMPS:SHP:1,2019-07-04T18:54:00,30.0600,-84.2910,1013.96,11111222 
COMPS,ioos:station:USF.COMPS:SHP:1,2019-07-04T19:54:00,30.0600,-84.2910,1012.98,11111222 
COMPS,ioos:station:USF.COMPS:SHP:1,2019-07-04T20:54:00,30.0600,-84.2910,1012.78,11111222 
COMPS,ioos:station:USF.COMPS:SHP:1,2019-07-04T21:54:00,30.0600,-84.2910,1012.77,11111222 
COMPS,ioos:station:USF.COMPS:SHP:1,2019-07-04T22:54:00,30.0600,-84.2910,1012.9,11111222 
COMPS,ioos:station:USF.COMPS:SHP:1,2019-07-04T23:54:00,30.0600,-84.2910,1013.53,11111222 
COMPS,ioos:station:USF.COMPS:SHP:1,2019-07-05T00:54:00,30.0600,-84.2910,1014.44,11111222 
COMPS,ioos:station:USF.COMPS:SHP:1,2019-07-05T01:54:00,30.0600,-84.2910,1015.29,11111222 
COMPS,ioos:station:USF.COMPS:SHP:1,2019-07-05T02:54:00,30.0600,-84.2910,1016.49,11111222 
COMPS,ioos:station:USF.COMPS:SHP:1,2019-07-05T03:54:00,30.0600,-84.2910,1016.93,11111222 
COMPS,ioos:station:USF.COMPS:SHP:1,2019-07-05T04:54:00,30.0600,-84.2910,1016.54,11111222 
COMPS,ioos:station:USF.COMPS:SHP:1,2019-07-05T05:54:00,30.0600,-84.2910,1016.06,11111222 
COMPS,ioos:station:USF.COMPS:SHP:1,2019-07-05T06:54:00,30.0600,-84.2910,1014.72,11111222 
COMPS,ioos:station:USF.COMPS:SHP:1,2019-07-05T07:54:00,30.0600,-84.2910,1014.73,11111222 
COMPS,ioos:station:USF.COMPS:SHP:1,2019-07-05T08:54:00,30.0600,-84.2910,1015.24,11111222 
COMPS,ioos:station:USF.COMPS:SHP:1,2019-07-05T09:54:00,30.0600,-84.2910,1015.72,11111222 
COMPS,ioos:station:USF.COMPS:SHP:1,2019-07-05T10:54:00,30.0600,-84.2910,1016.28,11111222 
COMPS,ioos:station:USF.COMPS:SHP:1,2019-07-05T11:54:00,30.0600,-84.2910,1016.77,11111222 
COMPS,ioos:station:USF.COMPS:SHP:1,2019-07-05T12:54:00,30.0600,-84.2910,1017.45,11111222 
COMPS,ioos:station:USF.COMPS:SHP:1,2019-07-05T13:54:00,30.0600,-84.2910,1018.04,11111222 
COMPS,ioos:station:USF.COMPS:SHP:1,2019-07-05T14:54:00,30.0600,-84.2910,1017.94,11111222 
COMPS,ioos:station:USF.COMPS:SHP:1,2019-07-05T15:54:00,30.0600,-84.2910,1018.2,11111222 
COMPS,ioos:station:USF.COMPS:SHP:1,2019-07-05T16:54:00,30.0600,-84.2910,1018.33,11111222 
COMPS,ioos:station:USF.COMPS:SHP:1,2019-07-05T17:54:00,30.0600,-84.2910,1017.84,11111222 
COMPS,ioos:station:USF.COMPS:SHP:1,2019-07-05T18:54:00,30.0600,-84.2910,1016.8,11111222 
COMPS,ioos:station:USF.COMPS:SHP:1,2019-07-05T19:54:00,30.0600,-84.2910,1016.46,11111222 
COMPS,ioos:station:USF.COMPS:SHP:1,2019-07-05T20:54:00,30.0600,-84.2910,1015.94,11111222 
COMPS,ioos:station:USF.COMPS:SHP:1,2019-07-05T21:54:00,30.0600,-84.2910,1015.5,11111222 
COMPS,ioos:station:USF.COMPS:SHP:1,2019-07-05T22:54:00,30.0600,-84.2910,1016.21,11111222 
COMPS,ioos:station:USF.COMPS:SHP:1,2019-07-05T23:54:00,30.0600,-84.2910,1016.5,11111222 
COMPS,ioos:station:USF.COMPS:SHP:1,2019-07-06T00:54:00,30.0600,-84.2910,1016.33,11111222 
COMPS,ioos:station:USF.COMPS:SHP:1,2019-07-06T01:54:00,30.0600,-84.2910,1017.25,11111222 
COMPS,ioos:station:USF.COMPS:SHP:1,2019-07-06T02:54:00,30.0600,-84.2910,1017.36,11111222 
COMPS,ioos:station:USF.COMPS:SHP:1,2019-07-06T03:54:00,30.0600,-84.2910,1017.38,11111222 
COMPS,ioos:station:USF.COMPS:SHP:1,2019-07-06T04:54:00,30.0600,-84.2910,1017.33,11111222 
COMPS,ioos:station:USF.COMPS:SHP:1,2019-07-06T05:54:00,30.0600,-84.2910,1017.25,11111222 
COMPS,ioos:station:USF.COMPS:SHP:1,2019-07-06T06:54:00,30.0600,-84.2910,1016.62,11111222 
COMPS,ioos:station:USF.COMPS:SHP:1,2019-07-06T07:54:00,30.0600,-84.2910,1016.0,11111222 
COMPS,ioos:station:USF.COMPS:SHP:1,2019-07-06T08:54:00,30.0600,-84.2910,1016.48,11111222 
COMPS,ioos:station:USF.COMPS:SHP:1,2019-07-06T09:54:00,30.0600,-84.2910,1016.2,11111222 
COMPS,ioos:station:USF.COMPS:SHP:1,2019-07-06T10:54:00,30.0600,-84.2910,1016.54,11111222 
COMPS,ioos:station:USF.COMPS:SHP:1,2019-07-06T11:54:00,30.0600,-84.2910,1016.9,11111222 
COMPS,ioos:station:USF.COMPS:SHP:1,2019-07-06T12:54:00,30.0600,-84.2910,1017.12,11111222 
COMPS,ioos:station:USF.COMPS:SHP:1,2019-07-06T13:54:00,30.0600,-84.2910,1017.28,11111222 
COMPS,ioos:station:USF.COMPS:SHP:1,2019-07-06T14:54:00,30.0600,-84.2910,1018.22,11111222 
COMPS,ioos:station:USF.COMPS:SHP:1,2019-07-06T15:54:00,30.0600,-84.2910,1017.7,11111222 
COMPS,ioos:station:USF.COMPS:SHP:1,2019-07-06T16:54:00,30.0600,-84.2910,1017.56,11111222 
COMPS,ioos:station:USF.COMPS:SHP:1,2019-07-06T17:54:00,30.0600,-84.2910,1017.5,11111222 
COMPS,ioos:station:USF.COMPS:SHP:1,2019-07-06T18:54:00,30.0600,-84.2910,1017.01,11111222 
COMPS,ioos:station:USF.COMPS:SHP:1,2019-07-06T19:54:00,30.0600,-84.2910,1016.68,11111222 
COMPS,ioos:station:USF.COMPS:SHP:1,2019-07-06T20:54:00,30.0600,-84.2910,1016.62,11111222 
COMPS,ioos:station:USF.COMPS:SHP:1,2019-07-06T21:54:00,30.0600,-84.2910,1016.66,11111222 
COMPS,ioos:station:USF.COMPS:SHP:1,2019-07-06T22:54:00,30.0600,-84.2910,1014.74,11111222 
COMPS,ioos:station:USF.COMPS:SHP:1,2019-07-06T23:54:00,30.0600,-84.2910,1015.14,11111222 
COMPS,ioos:station:USF.COMPS:SHP:1,2019-07-07T00:54:00,30.0600,-84.2910,1015.66,11111222 
COMPS,ioos:station:USF.COMPS:SHP:1,2019-07-07T01:54:00,30.0600,-84.2910,1015.58,11111222 
COMPS,ioos:station:USF.COMPS:SHP:1,2019-07-07T02:54:00,30.0600,-84.2910,1015.97,11111222 
COMPS,ioos:station:USF.COMPS:SHP:1,2019-07-07T03:54:00,30.0600,-84.2910,1015.62,11111222 
COMPS,ioos:station:USF.COMPS:SHP:1,2019-07-07T04:54:00,30.0600,-84.2910,1015.58,11111222 
COMPS,ioos:station:USF.COMPS:SHP:1,2019-07-07T05:54:00,30.0600,-84.2910,1015.37,11111222 
COMPS,ioos:station:USF.COMPS:SHP:1,2019-07-07T06:54:00,30.0600,-84.2910,1014.94,11111222 
COMPS,ioos:station:USF.COMPS:SHP:1,2019-07-07T07:54:00,30.0600,-84.2910,1014.44,11111222 
COMPS,ioos:station:USF.COMPS:SHP:1,2019-07-07T08:54:00,30.0600,-84.2910,1014.37,11111222 
COMPS,ioos:station:USF.COMPS:SHP:1,2019-07-07T09:54:00,30.0600,-84.2910,1014.62,11111222 
COMPS,ioos:station:USF.COMPS:SHP:1,2019-07-07T10:54:00,30.0600,-84.2910,1014.69,11111222 
COMPS,ioos:station:USF.COMPS:SHP:1,2019-07-07T11:54:00,30.0600,-84.2910,1014.64,11111222 
COMPS,ioos:station:USF.COMPS:SHP:1,2019-07-07T12:54:00,30.0600,-84.2910,1014.66,11111222 
COMPS,ioos:station:USF.COMPS:SHP:1,2019-07-07T13:54:00,30.0600,-84.2910,1014.64,11111222 
COMPS,ioos:station:USF.COMPS:SHP:1,2019-07-07T14:54:00,30.0600,-84.2910,1014.61,11111222 
COMPS,ioos:station:USF.COMPS:SHP:1,2019-07-07T15:54:00,30.0600,-84.2910,1014.29,11111222 
COMPS,ioos:station:USF.COMPS:SHP:1,2019-07-07T16:54:00,30.0600,-84.2910,1014.04,11111222 
COMPS,ioos:station:USF.COMPS:SHP:1,2019-07-07T17:54:00,30.0600,-84.2910,1013.52,11111222 
COMPS,ioos:station:USF.COMPS:SHP:1,2019-07-07T18:54:00,30.0600,-84.2910,1014.45,11111222 
COMPS,ioos:station:USF.COMPS:SHP:1,2019-07-07T19:54:00,30.0600,-84.2910,1012.76,11111222 
COMPS,ioos:station:USF.COMPS:SHP:1,2019-07-07T20:54:00,30.0600,-84.2910,1011.84,11111222 
COMPS,ioos:station:USF.COMPS:SHP:1,2019-07-07T21:54:00,30.0600,-84.2910,1011.6,11111222 
COMPS,ioos:station:USF.COMPS:SHP:1,2019-07-07T22:54:00,30.0600,-84.2910,1011.98,11111222 
COMPS,ioos:station:USF.COMPS:SHP:1,2019-07-07T23:54:00,30.0600,-84.2910,1011.73,11111222 
COMPS,ioos:station:USF.COMPS:SHP:1,2019-07-08T00:54:00,30.0600,-84.2910,1012.06,11111222 
COMPS,ioos:station:USF.COMPS:SHP:1,2019-07-08T01:54:00,30.0600,-84.2910,1012.74,11111222 
COMPS,ioos:station:USF.COMPS:SHP:1,2019-07-08T02:54:00,30.0600,-84.2910,1013.45,11111222 
COMPS,ioos:station:USF.COMPS:SHP:1,2019-07-08T03:54:00,30.0600,-84.2910,1013.04,11111222 
COMPS,ioos:station:USF.COMPS:SHP:1,2019-07-08T04:54:00,30.0600,-84.2910,1011.97,11111222 
COMPS,ioos:station:USF.COMPS:SHP:1,2019-07-08T05:54:00,30.0600,-84.2910,1010.92,11111222 
COMPS,ioos:station:USF.COMPS:SHP:1,2019-07-08T06:54:00,30.0600,-84.2910,1011.38,11111222 
COMPS,ioos:station:USF.COMPS:SHP:1,2019-07-08T07:54:00,30.0600,-84.2910,1011.64,11111222 
COMPS,ioos:station:USF.COMPS:SHP:1,2019-07-08T08:54:00,30.0600,-84.2910,1011.08,11111222 
COMPS,ioos:station:USF.COMPS:SHP:1,2019-07-08T09:54:00,30.0600,-84.2910,1011.25,11111222 
COMPS,ioos:station:USF.COMPS:SHP:1,2019-07-08T10:54:00,30.0600,-84.2910,1011.84,11111222 
COMPS,ioos:station:USF.COMPS:SHP:1,2019-07-08T11:54:00,30.0600,-84.2910,1011.97,11111222 
COMPS,ioos:station:USF.COMPS:SHP:1,2019-07-08T12:54:00,30.0600,-84.2910,1012.4,11111222 
COMPS,ioos:station:USF.COMPS:SHP:1,2019-07-08T13:54:00,30.0600,-84.2910,1012.61,11111222 
COMPS,ioos:station:USF.COMPS:SHP:1,2019-07-08T14:54:00,30.0600,-84.2910,1012.61,11111222 
COMPS,ioos:station:USF.COMPS:SHP:1,2019-07-08T15:54:00,30.0600,-84.2910,1012.14,11111222 
COMPS,ioos:station:USF.COMPS:SHP:1,2019-07-08T16:54:00,30.0600,-84.2910,1011.52,11111222 
COMPS,ioos:station:USF.COMPS:SHP:1,2019-07-08T17:54:00,30.0600,-84.2910,1010.89,11111222 
COMPS,ioos:station:USF.COMPS:SHP:1,2019-07-08T18:54:00,30.0600,-84.2910,1010.17,11111222 
COMPS,ioos:station:USF.COMPS:SHP:1,2019-07-08T19:54:00,30.0600,-84.2910,1009.6,11111222 
COMPS,ioos:station:USF.COMPS:SHP:1,2019-07-08T20:54:00,30.0600,-84.2910,1009.1,11111222 
COMPS,ioos:station:USF.COMPS:SHP:1,2019-07-08T21:54:00,30.0600,-84.2910,1009.93,11111222 
COMPS,ioos:station:USF.COMPS:SHP:1,2019-07-08T22:54:00,30.0600,-84.2910,1010.26,11111222 
COMPS,ioos:station:USF.COMPS:SHP:1,2019-07-08T23:54:00,30.0600,-84.2910,1009.61,11111222 
COMPS,ioos:station:USF.COMPS:SHP:1,2019-07-09T00:54:00,30.0600,-84.2910,1010.33,11111222 
COMPS,ioos:station:USF.COMPS:SHP:1,2019-07-09T01:54:00,30.0600,-84.2910,1010.81,11111222 
COMPS,ioos:station:USF.COMPS:SHP:1,2019-07-09T02:54:00,30.0600,-84.2910,1011.1,11111222 
COMPS,ioos:station:USF.COMPS:SHP:1,2019-07-09T03:54:00,30.0600,-84.2910,1011.04,11111222 
COMPS,ioos:station:USF.COMPS:SHP:1,2019-07-09T04:54:00,30.0600,-84.2910,1010.89,11111222 
COMPS,ioos:station:USF.COMPS:SHP:1,2019-07-09T05:54:00,30.0600,-84.2910,1010.7,11111222 
COMPS,ioos:station:USF.COMPS:SHP:1,2019-07-09T06:54:00,30.0600,-84.2910,1010.65,11111222 
COMPS,ioos:station:USF.COMPS:SHP:1,2019-07-09T07:54:00,30.0600,-84.2910,1010.56,11111222 
COMPS,ioos:station:USF.COMPS:SHP:1,2019-07-09T08:54:00,30.0600,-84.2910,1010.28,11111222 
COMPS,ioos:station:USF.COMPS:SHP:1,2019-07-09T09:54:00,30.0600,-84.2910,1010.82,11111222 
COMPS,ioos:station:USF.COMPS:SHP:1,2019-07-09T10:54:00,30.0600,-84.2910,1011.02,11111222 
COMPS,ioos:station:USF.COMPS:SHP:1,2019-07-09T11:54:00,30.0600,-84.2910,1011.48,11111222 
COMPS,ioos:station:USF.COMPS:SHP:1,2019-07-09T12:54:00,30.0600,-84.2910,1011.62,11111222 
COMPS,ioos:station:USF.COMPS:SHP:1,2019-07-09T13:54:00,30.0600,-84.2910,1012.02,11111222 
COMPS,ioos:station:USF.COMPS:SHP:1,2019-07-09T14:54:00,30.0600,-84.2910,1012.26,11111222 
COMPS,ioos:station:USF.COMPS:SHP:1,2019-07-09T15:54:00,30.0600,-84.2910,1012.49,11111222 
COMPS,ioos:station:USF.COMPS:SHP:1,2019-07-09T16:54:00,30.0600,-84.2910,1012.16,11111222 
COMPS,ioos:station:USF.COMPS:SHP:1,2019-07-09T17:54:00,30.0600,-84.2910,1011.49,11111222 
COMPS,ioos:station:USF.COMPS:SHP:1,2019-07-09T18:54:00,30.0600,-84.2910,1011.18,11111222 
COMPS,ioos:station:USF.COMPS:SHP:1,2019-07-09T19:54:00,30.0600,-84.2910,1010.6,11111222 
COMPS,ioos:station:USF.COMPS:SHP:1,2019-07-09T20:54:00,30.0600,-84.2910,1011.26,11111222 
COMPS,ioos:station:USF.COMPS:SHP:1,2019-07-09T21:54:00,30.0600,-84.2910,1011.29,11111222 
COMPS,ioos:station:USF.COMPS:SHP:1,2019-07-09T22:54:00,30.0600,-84.2910,1010.52,11111222 
COMPS,ioos:station:USF.COMPS:SHP:1,2019-07-09T23:54:00,30.0600,-84.2910,1011.94,11111222 
COMPS,ioos:station:USF.COMPS:SHP:1,2019-07-10T00:54:00,30.0600,-84.2910,1011.88,11111222 
COMPS,ioos:station:USF.COMPS:SHP:1,2019-07-10T01:54:00,30.0600,-84.2910,1012.0,11111222 
COMPS,ioos:station:USF.COMPS:SHP:1,2019-07-10T02:54:00,30.0600,-84.2910,1012.65,11111222 
COMPS,ioos:station:USF.COMPS:SHP:1,2019-07-10T03:54:00,30.0600,-84.2910,1011.93,11111222 
COMPS,ioos:station:USF.COMPS:SHP:1,2019-07-10T04:54:00,30.0600,-84.2910,1011.84,11111222 
COMPS,ioos:station:USF.COMPS:SHP:1,2019-07-10T05:54:00,30.0600,-84.2910,1011.66,11111222 
COMPS,ioos:station:USF.COMPS:SHP:1,2019-07-10T06:54:00,30.0600,-84.2910,1011.78,11111222 
COMPS,ioos:station:USF.COMPS:SHP:1,2019-07-10T07:54:00,30.0600,-84.2910,1011.25,11111222 
COMPS,ioos:station:USF.COMPS:SHP:1,2019-07-10T08:54:00,30.0600,-84.2910,1010.93,11111222 
COMPS,ioos:station:USF.COMPS:SHP:1,2019-07-10T09:54:00,30.0600,-84.2910,1011.34,11111222 
COMPS,ioos:station:USF.COMPS:SHP:1,2019-07-10T10:54:00,30.0600,-84.2910,1011.93,11111222 
COMPS,ioos:station:USF.COMPS:SHP:1,2019-07-10T11:54:00,30.0600,-84.2910,1012.62,11111222 
COMPS,ioos:station:USF.COMPS:SHP:1,2019-07-10T12:54:00,30.0600,-84.2910,1013.18,11111222 
COMPS,ioos:station:USF.COMPS:SHP:1,2019-07-10T13:54:00,30.0600,-84.2910,1013.18,11111222 
COMPS,ioos:station:USF.COMPS:SHP:1,2019-07-10T14:54:00,30.0600,-84.2910,1013.53,11111222 
COMPS,ioos:station:USF.COMPS:SHP:1,2019-07-10T15:54:00,30.0600,-84.2910,1013.53,11111222 
COMPS,ioos:station:USF.COMPS:SHP:1,2019-07-10T16:54:00,30.0600,-84.2910,1013.68,11111222 
COMPS,ioos:station:USF.COMPS:SHP:1,2019-07-10T17:54:00,30.0600,-84.2910,1013.18,11111222 
COMPS,ioos:station:USF.COMPS:SHP:1,2019-07-10T18:54:00,30.0600,-84.2910,1013.0,11111222 
COMPS,ioos:station:USF.COMPS:SHP:1,2019-07-10T19:54:00,30.0600,-84.2910,1012.48,11111222 
COMPS,ioos:station:USF.COMPS:SHP:1,2019-07-10T20:54:00,30.0600,-84.2910,1012.25,11111222 
COMPS,ioos:station:USF.COMPS:SHP:1,2019-07-10T21:54:00,30.0600,-84.2910,1012.13,11111222 
COMPS,ioos:station:USF.COMPS:SHP:1,2019-07-10T22:54:00,30.0600,-84.2910,1011.73,11111222 
COMPS,ioos:station:USF.COMPS:SHP:1,2019-07-10T23:54:00,30.0600,-84.2910,1012.34,11111222 
COMPS,ioos:station:USF.COMPS:SHP:1,2019-07-11T00:54:00,30.0600,-84.2910,1012.25,11111222 
COMPS,ioos:station:USF.COMPS:SHP:1,2019-07-11T01:54:00,30.0600,-84.2910,1012.6,11111222 
COMPS,ioos:station:USF.COMPS:SHP:1,2019-07-11T02:54:00,30.0600,-84.2910,1012.78,11111222 
COMPS,ioos:station:USF.COMPS:SHP:1,2019-07-11T03:54:00,30.0600,-84.2910,1012.82,11111222 
COMPS,ioos:station:USF.COMPS:SHP:1,2019-07-11T04:54:00,30.0600,-84.2910,1013.02,11111222 
COMPS,ioos:station:USF.COMPS:SHP:1,2019-07-11T05:54:00,30.0600,-84.2910,1012.7,11111222 
COMPS,ioos:station:USF.COMPS:SHP:1,2019-07-11T06:54:00,30.0600,-84.2910,1012.38,11111222 
COMPS,ioos:station:USF.COMPS:SHP:1,2019-07-11T07:54:00,30.0600,-84.2910,1011.86,11111222 
COMPS,ioos:station:USF.COMPS:SHP:1,2019-07-11T08:54:00,30.0600,-84.2910,1011.68,11111222 
COMPS,ioos:station:USF.COMPS:SHP:1,2019-07-11T09:54:00,30.0600,-84.2910,1011.8,11111222 
COMPS,ioos:station:USF.COMPS:SHP:1,2019-07-11T10:54:00,30.0600,-84.2910,1012.2,11111222 
COMPS,ioos:station:USF.COMPS:SHP:1,2019-07-11T11:54:00,30.0600,-84.2910,1012.65,11111222 
COMPS,ioos:station:USF.COMPS:SHP:1,2019-07-11T12:54:00,30.0600,-84.2910,1013.16,11111222 
COMPS,ioos:station:USF.COMPS:SHP:1,2019-07-11T13:54:00,30.0600,-84.2910,1013.13,11111222 
COMPS,ioos:station:USF.COMPS:SHP:1,2019-07-11T14:54:00,30.0600,-84.2910,1013.17,11111222 
COMPS,ioos:station:USF.COMPS:SHP:1,2019-07-11T15:54:00,30.0600,-84.2910,1012.88,11111222 
COMPS,ioos:station:USF.COMPS:SHP:1,2019-07-11T16:54:00,30.0600,-84.2910,1012.89,11111222 
COMPS,ioos:station:USF.COMPS:SHP:1,2019-07-11T17:54:00,30.0600,-84.2910,1013.01,11111222 
COMPS,ioos:station:USF.COMPS:SHP:1,2019-07-11T18:54:00,30.0600,-84.2910,1012.45,11111222 
COMPS,ioos:station:USF.COMPS:SHP:1,2019-07-11T19:54:00,30.0600,-84.2910,1011.5,11111222 
COMPS,ioos:station:USF.COMPS:SHP:1,2019-07-11T20:54:00,30.0600,-84.2910,1011.42,11111222 
COMPS,ioos:station:USF.COMPS:SHP:1,2019-07-11T21:54:00,30.0600,-84.2910,1010.78,11111222 
COMPS,ioos:station:USF.COMPS:SHP:1,2019-07-11T22:54:00,30.0600,-84.2910,1010.81,11111222 
COMPS,ioos:station:USF.COMPS:SHP:1,2019-07-11T23:54:00,30.0600,-84.2910,1011.17,11111222 
COMPS,ioos:station:USF.COMPS:SHP:1,2019-07-12T00:54:00,30.0600,-84.2910,1011.73,11111222 
COMPS,ioos:station:USF.COMPS:SHP:1,2019-07-12T01:54:00,30.0600,-84.2910,1012.28,11111222 
COMPS,ioos:station:USF.COMPS:SHP:1,2019-07-12T02:54:00,30.0600,-84.2910,1012.26,11111222 